Tracking 25689 objects as of 7-Jul-2022
HD Live streaming from Space Station
objects crossing your sky now

FENGYUN 1C DEB

Track FENGYUN 1C DEB now!
10-day predictions


NORAD ID: 33601
Int'l Code: 1999-025DCJ
Perigee: 774.8 km
Apogee: 1,028.4 km
Inclination: 98.3 °
Period: 102.9 minutes
Semi major axis: 7272 km
RCS: 0.0058 m2 (small)
Launch date: May 10, 1999
Source: People's Republic of China (PRC)
Launch site: Taiyaun Space Center, China (TSC)

Note: This is SATELLITE DEBRIS
aabbcc
Your satellite tracking list
Your tracking list is empty




NASA's NSSDC Master Catalog

Two Line Element Set (TLE):
1 33601U 99025DCJ 22187.66138107  .00000473  00000-0  30480-3 0  9992
2 33601  98.3400  75.5970 0174393 103.2823 258.7857 13.99805028730779
Source of the keplerian elements: AFSPC